Torna al catalogo

STARLINK-4348

AttivoComunicazioniSSO
NORAD 53075·PAYLOAD·🇺🇸 United States

Lanciato Jul 11, 2022 da Vandenberg Space Force Base

Loading…

Prossimi Passaggi (prossime 24 ore)

TLE

AggiornatoSource: CelesTrak SupGP

Epoca: Sep 14, 2026, 21:39 UTC

1 53075C 22077AJ  26257.90256944  .00062912  00000+0  19527-2 0  2571
2 53075  97.2854  72.7765 0001543  93.5997 334.8547 15.33410711    17

Traccia STARLINK-4348 in tempo reale con AllMySat

Download on the App Store